Location: Friaudour
(46.0460°N, 1.2873°E)
Time: 15:43:01
(UTC+00:00)

Spot 4 Rocket - Pass Details

Date: 24 October 2020
Orbit: 776 x 781 km, 98.7° (Epoch: 29 November)

Event Time Altitude Azimuth Distance (km) Brightness Sun altitude
Rises 05:15:01 0° 356° (N) 3,270 7.2 -12.7°
Reaches altitude 10° 05:19:32 10° 319° (NW) 2,336 6.1 -11.9°
Enters shadow 05:20:26 11° 308° (NW) 2,298 6.0 -11.8°
